FENGYUN 1C DEB

Satellite information

Favourite Embed

Satellite Type and Status

DEBRISIN ORBIT

Key statistics

Satellite FENGYUN 1C DEB at a glance.

Uptime

9715

Days in orbit

Revolutions

≈ 14.0

Per day

Orbit

SSO

Sun Synchronous Orbit

Inclination

98.9

Latest

Satellite identification and parameters

Extended collection of information and parameters for FENGYUN 1C DEB.

Object identification

Identified? True

Debris? True

Object name: FENGYUN 1C DEB

International designator: 1999-025ATY

Object number (NORAD): 30762

Object ID (CCSDS): 30762

Country: PEOPLES REPUBLIC OF CHINA (PRC)

Current information (Y/N): Y

RCS size: SMALL

Orbital parameters

Period: 102.997 minutes

Inclination: 98.8747 deg

SMA: 7278.541 km

Apoapsis: 1044.223 km

Periapsis: 756.589 km

RAAN: 338.0243 deg

Eccentricy: 0.01975902

Argument of periapsis: 293.6965 deg

Mean anomaly: 80.3261 deg

Mean motion: 13.98093616 rev/day

Mean motion (dot): 0.00001322 rev/day2

B* drag term: 0.00081357898 1/REarth

Two-line elements (TLE)

Creation date: Dec. 13, 2025, 5:47 p.m.

Reference frame: TEME

Reference center: EARTH

Epoch: Dec. 13, 2025, 6:05 a.m. UTC

TLE line 0: 0 FENGYUN 1C DEB

TLE line 1: 1 30762U 99025ATY 25347.25347564 .00001322 00000-0 81358-3 0 9996

TLE line 2: 2 30762 98.8747 338.0243 0197590 293.6965 80.3261 13.98093616956452

Live tracking on map

Real-time ground track for satellite FENGYUN 1C DEB.

In-orbit conjunctions

A list of the most updated potential collisions computed for object FENGYUN 1C DEB.

Target Orbit TCA Probability of collision Miss distance Type
COSMOS 1934 LEO 2025-09-27 22:33:35 0.003044897 212.0 (m) PAYLOAD
CZ-4B DEB SSO 2025-07-25 00:16:25 0.0002791463 185.0 (m) DEBRIS
COSMOS 1727 LEO 2025-05-15 22:35:18 0.0006321643 451.0 (m) PAYLOAD
COSMOS 783 LEO 2024-12-02 04:39:25 0.00209427 236.0 (m) PAYLOAD

Associated space launch

Chinese polar orbiting meteorological satellite

FENGYUN 1C DEB was lifted into orbit during the mission ‘Long March 4B | Feng Yun 1C’, on board a Long March 4B space rocket.

The launch took place on May 10, 1999, 1:33 a.m. from Launch Complex 7.

For more information about the launch, click the button.

Launch to space Long March 4B | Feng Yun 1C
Long March 4B | Feng Yun 1C

Agency: N/A

Status: Launch Successful

Launch date: May 10, 1999, 1:33 a.m. UTC

Rocket: Long March 4B

Launch pad: Launch Complex 7

Location: Taiyuan Satellite Launch Center, People's Republic of China

...

Latest news about this satellite

There are no fresh news available about this satellite. Check back as we update our databases every day.


Newsletter sign-up

Weekly statistics, charts and insights to help you stay on top of the space industry.